Location: Altoona
(40.5167°N, 78.4000°W)
Time: 15:18:54
(UTC-04:00)

Cosmos 405 - Pass Details

Date: 21 August 2017
Orbit: 458 x 474 km, 81.3° (Epoch: 24 September)

Event Time Altitude Azimuth Distance (km) Brightness Sun altitude
Exits shadow 22:28:58 42° 343° (NNW) 686 4.1 -24.9°
Drops below altitude 10° 22:31:33 10° 3° (N) 1,647 6.2 -25.3°
Sets 22:33:41 0° 6° (N) 2,531 7.2 -25.6°
